Location: Unspecified
(0.0000°N, 0.0000°E)
Time: 19:41:57
(UTC+00:00)

CZ-2C R/B - Visible Passes

Search period start: 02 March 2024 00:00
Search period end: 12 March 2024 00:00
Orbit: 671 x 742 km, 98.4° (Epoch: 02 March)

Date Brightness Start Highest point End Pass type
(mag) Time Alt. Az. Time Alt. Az. Time Alt. Az.
02 Mar ? 19:28:35 10° NNE 19:33:12 82° ESE 19:37:47 10° S visible
03 Mar ? 18:37:04 10° ENE 18:39:42 15° ESE 18:42:19 10° SE visible
03 Mar ? 20:13:32 10° NNW 20:17:14 25° WNW 20:20:57 10° SW visible
04 Mar ? 19:19:13 10° NNE 19:23:44 60° ESE 19:28:15 10° S visible
05 Mar ? 20:03:42 10° NNW 20:07:47 33° WNW 20:11:54 10° SW visible
06 Mar ? 19:09:57 10° NNE 19:14:17 43° ESE 19:18:38 10° S visible
07 Mar ? 19:53:59 10° N 19:58:20 44° WNW 20:02:43 10° SSW visible
08 Mar ? 19:00:45 10° NE 19:04:50 32° ESE 19:08:55 10° SSE visible
08 Mar ? 20:40:58 10° WNW 20:42:22 11° WNW 20:43:47 10° W visible
09 Mar ? 19:44:22 10° N 19:48:52 61° WNW 19:53:25 10° SSW visible
10 Mar ? 18:51:42 10° NE 18:55:22 24° ESE 18:59:03 10° SSE visible
10 Mar ? 20:30:14 10° NW 20:32:55 16° WNW 20:35:38 10° WSW visible
11 Mar ? 19:34:50 10° N 19:39:24 84° WNW 19:44:01 10° SSW visible
